Theta_e
349 349 348 347 347 346 346 345 345 347 348 348 349 348 348 348 348 348 349 349 349 350 350 350 350 350 351 351 352 353 354 353 352 353 355 352 351 352 353 354 354 354 356 355 352 349 346 343 343 344 344 344 346 346 347 348 350 352 352 352 354 356 356 357 357 356 355 354 353 353 353 353 354 354 354 354 353 354 354 354 354 354 354 354 353
349 350 349 347 347 346 345 345 346 346 347 347 348 347 347 347 348 348 348 348 349 349 349 349 350 350 351 352 353 354 355 354 351 352 355 355 354 354 354 354 353 352 351 352 352 349 346 344 346 347 348 348 348 348 350 351 352 352 352 352 353 355 355 357 357 356 356 355 352 351 352 354 354 353 354 353 353 354 354 354 354 353 353 353 353
349 350 350 348 348 346 344 344 345 345 345 346 346 346 346 347 348 348 347 346 347 348 348 349 350 351 352 352 353 353 352 352 352 354 356 356 355 355 353 352 351 349 348 349 348 348 349 349 348 348 350 349 349 349 350 350 348 347 349 351 353 353 353 355 356 356 356 355 352 351 352 353 352 353 353 353 353 353 353 353 353 352 352 352 352
352 351 350 348 347 346 345 344 344 345 345 344 345 345 345 346 347 347 346 345 345 347 348 349 350 351 351 351 352 351 348 347 349 351 354 355 354 353 351 349 348 348 349 349 346 345 348 349 349 349 349 349 349 350 349 348 346 345 345 348 352 352 352 353 356 356 355 354 354 353 353 353 352 353 352 352 352 352 353 353 352 352 352 351 351
352 351 348 347 347 347 346 345 345 345 345 344 344 344 344 344 346 346 346 344 344 345 347 349 350 350 350 350 351 352 351 349 348 348 352 355 353 350 350 350 349 348 349 348 346 346 347 348 349 349 349 349 350 350 350 349 348 347 346 347 350 352 353 354 355 355 353 353 353 352 351 352 352 351 351 351 351 351 352 352 351 351 350 349 349
347 348 346 346 347 347 347 347 347 347 346 345 344 344 344 344 345 346 346 345 345 345 346 347 348 349 349 350 351 353 354 353 352 350 351 353 351 349 349 350 349 348 348 348 347 347 349 349 349 349 349 349 349 349 349 349 348 348 348 348 350 352 353 354 354 353 351 350 351 350 349 350 350 349 349 349 349 349 350 349 347 347 346 345 346
345 345 345 345 345 346 347 348 348 349 348 346 346 346 345 344 344 346 346 346 345 345 345 346 347 347 348 350 351 351 352 352 351 350 349 349 348 348 348 349 350 351 351 351 349 348 349 348 348 348 348 348 348 348 348 348 349 348 349 349 351 352 353 352 352 350 348 348 349 349 350 350 349 349 349 349 348 346 345 342 342 343 343 343 343
346 345 344 345 345 346 346 347 347 348 348 347 347 348 347 345 346 347 347 347 347 345 344 344 346 348 349 350 350 348 348 350 350 348 348 348 347 347 347 348 351 352 351 351 350 347 347 346 345 345 345 346 346 347 349 351 351 351 350 350 350 350 350 350 349 347 347 349 349 348 349 349 349 348 347 345 343 341 339 339 341 342 341 342 342
346 345 345 345 345 345 345 346 346 347 347 347 347 348 347 345 345 346 346 347 346 346 346 345 347 349 350 348 344 344 348 349 349 349 348 347 347 347 347 347 349 350 349 349 349 348 347 346 345 344 344 344 345 348 351 352 351 351 351 350 350 349 349 348 348 348 348 348 348 347 347 346 345 344 342 340 339 338 338 339 340 341 341 343 342
346 346 346 346 346 345 345 345 346 346 346 347 348 348 347 345 342 342 342 342 341 343 344 346 347 350 351 347 342 342 346 347 348 347 346 346 346 346 347 348 348 349 350 350 349 349 348 347 346 346 345 346 347 349 350 350 350 351 350 350 350 350 349 347 347 347 347 347 347 346 344 341 338 337 336 336 336 337 338 338 339 340 340 339 339
346 346 346 347 348 347 345 344 345 345 343 346 347 347 346 344 341 340 341 340 340 341 342 344 346 349 351 349 345 343 342 344 346 345 344 345 345 345 348 350 350 349 350 351 350 349 348 347 347 347 347 348 349 350 349 350 350 349 349 349 349 349 348 347 347 347 346 346 344 342 338 335 333 332 332 332 333 335 337 337 338 338 337 335 335
346 345 346 347 348 348 345 345 346 345 344 344 346 346 346 345 343 340 341 342 343 343 343 345 347 348 349 349 348 346 344 345 346 345 344 345 345 347 350 350 349 350 350 351 350 348 347 347 347 347 347 348 348 348 347 346 346 346 346 346 346 347 345 344 344 343 341 339 336 334 332 331 330 329 329 328 330 333 335 335 336 336 335 334 332
347 347 346 345 346 346 345 345 345 345 344 342 344 348 348 347 345 343 344 346 346 346 347 348 349 349 349 349 348 348 347 346 346 345 345 345 346 348 349 349 349 349 350 349 348 348 347 347 347 346 346 347 346 345 344 343 344 343 342 341 341 341 339 337 337 335 333 331 330 329 329 328 328 328 328 328 328 330 332 334 335 336 334 332 330
349 349 349 347 348 348 347 346 346 347 347 345 346 348 348 348 348 347 347 349 349 349 350 349 349 348 348 348 348 348 347 347 348 347 348 347 348 349 349 349 349 349 348 348 347 347 347 346 345 344 343 344 343 343 342 342 342 341 339 338 338 335 333 332 332 331 330 329 329 328 328 327 326 326 326 327 327 328 329 330 331 332 332 331 329
348 348 348 348 348 348 348 348 348 349 349 348 347 346 346 348 350 350 349 348 349 350 349 348 348 348 349 349 349 349 348 348 349 349 349 349 349 349 348 348 348 348 347 346 345 345 345 344 343 342 341 340 339 338 337 337 337 336 334 334 333 331 330 330 330 330 329 329 328 327 326 325 324 324 324 325 326 327 328 328 328 328 328 329 330
348 347 347 347 347 348 349 349 349 349 349 348 347 346 347 350 351 351 350 349 349 349 348 348 349 348 349 350 350 349 348 348 348 347 346 346 346 347 347 347 346 345 344 343 342 342 342 341 340 339 337 335 334 332 331 331 331 331 331 331 330 330 330 330 329 329 328 328 327 325 324 323 323 323 324 324 325 326 327 328 327 328 328 328 328
348 348 347 347 347 348 348 348 348 348 348 348 348 348 349 350 351 351 350 350 350 348 347 348 349 349 350 349 349 348 347 345 344 343 343 344 344 345 345 344 343 342 339 338 337 337 336 335 334 333 331 330 330 330 329 329 329 330 330 330 330 329 329 328 328 327 327 327 326 324 324 323 323 324 324 324 325 324 324 325 326 326 327 326 326
346 346 347 347 347 348 348 348 347 347 347 348 348 348 349 349 350 350 349 349 349 348 347 348 349 350 349 349 347 346 344 343 342 343 343 343 343 343 342 340 339 337 335 333 332 332 331 331 331 330 330 331 331 331 330 330 330 330 330 328 327 327 327 327 326 326 325 325 325 324 324 324 324 323 323 322 321 320 321 322 323 324 325 325 325
346 346 346 346 347 347 345 344 345 346 346 346 346 346 347 348 348 348 347 347 349 349 349 349 350 349 348 346 344 341 340 341 341 341 339 338 338 338 338 336 334 333 332 331 330 330 329 330 330 330 331 331 331 330 330 330 329 328 327 326 325 326 326 326 325 325 325 325 325 325 324 324 322 320 318 317 317 316 316 317 318 320 322 322 322
346 345 346 346 347 346 343 342 344 346 345 345 346 346 347 348 348 348 348 348 349 349 348 348 347 345 343 341 338 337 337 338 338 338 337 335 335 334 334 334 333 331 331 330 329 329 329 329 330 329 329 330 330 330 330 329 327 327 326 326 326 326 325 324 323 323 323 323 323 323 322 320 317 315 314 313 312 312 312 311 312 313 315 316 317
345 345 345 346 347 347 346 345 346 347 346 346 347 347 347 348 348 348 348 347 347 347 347 346 344 341 338 337 336 336 337 338 337 336 335 333 333 333 333 333 332 331 330 330 329 329 329 328 328 328 328 327 327 327 327 326 324 323 323 324 324 324 323 321 320 320 320 319 319 317 315 313 312 311 309 309 309 309 309 310 310 310 310 310 310
345 345 345 345 345 346 346 346 346 347 346 346 348 349 348 346 345 345 346 346 345 344 344 341 339 337 336 336 337 336 335 334 332 331 330 331 332 332 332 331 331 330 330 329 328 328 328 328 327 326 324 323 323 322 321 320 318 316 317 318 319 318 317 316 315 314 314 313 312 310 309 310 309 308 306 307 307 306 306 307 307 307 307 307 306
345 345 345 345 345 344 345 345 346 346 346 345 346 347 345 343 343 342 343 344 342 339 337 336 335 335 335 334 333 332 330 329 328 328 329 330 330 330 330 330 330 328 326 325 325 325 325 325 324 322 320 318 317 316 315 314 314 313 314 314 313 312 311 310 310 310 309 308 308 307 306 305 305 304 303 303 303 303 302 303 303 303 303 303 303
345 346 345 345 344 344 344 345 345 345 345 345 346 344 342 342 342 340 339 338 336 334 333 333 333 333 332 330 329 327 327 327 328 328 329 329 329 329 329 328 325 321 319 319 320 319 319 320 319 317 315 314 314 313 313 312 311 311 310 310 309 309 308 308 307 307 307 307 306 306 306 304 302 302 302 301 302 301 301 301 301 301 301 301 301
345 345 343 343 343 343 343 343 343 343 343 343 344 342 341 341 340 338 337 337 335 333 332 330 330 329 329 328 327 326 326 328 329 330 330 329 328 326 323 320 317 315 315 315 315 315 315 315 315 314 313 313 312 311 310 309 309 309 309 308 308 308 308 308 307 307 308 309 308 307 307 304 302 301 301 301 301 301 301 302 301 301 302 300 302
343 342 341 341 341 341 341 341 342 342 341 342 342 341 340 340 338 335 334 332 329 326 323 322 324 326 328 328 327 326 328 329 330 329 327 325 322 320 319 318 316 316 315 314 313 314 314 314 313 312 311 310 310 309 309 308 309 309 309 309 309 308 308 308 307 307 307 308 307 306 306 304 302 301 301 301 301 301 301 301 301 301 301 300 302
341 340 340 339 339 339 339 338 337 337 336 336 335 335 334 333 330 328 326 323 320 318 318 321 325 327 328 329 328 328 329 329 328 326 323 322 321 321 321 320 319 317 315 314 314 314 313 312 311 310 309 309 310 310 310 310 310 310 310 310 309 308 307 307 306 305 305 305 305 304 303 303 302 302 302 303 302 301 300 300 300 300 300 300 304
338 337 337 337 337 337 337 336 335 334 333 331 329 327 326 324 322 321 322 323 322 322 324 327 328 329 329 328 328 329 328 327 327 325 323 323 323 323 323 322 320 318 316 314 313 312 311 311 311 312 312 313 313 313 312 312 312 312 312 311 310 308 306 306 306 304 303 303 303 303 303 303 303 303 304 304 304 302 301 300 300 300 300 303 308
334 333 332 332 331 329 329 330 330 329 329 328 327 324 320 317 314 313 315 320 324 326 328 329 329 330 330 328 328 329 329 327 326 324 323 323 324 325 324 323 321 318 315 313 313 313 314 315 316 316 316 316 315 315 314 313 313 312 312 311 311 309 307 307 308 307 306 306 306 304 303 304 305 304 304 305 304 304 302 300 300 301 304 307 310
331 330 330 329 327 323 320 317 316 315 315 315 315 313 310 309 308 308 309 313 316 320 324 326 328 328 328 328 328 328 326 325 324 323 321 321 323 324 323 321 319 316 314 314 316 317 317 318 317 317 317 316 316 316 315 315 314 313 312 311 311 309 307 306 307 307 306 306 307 306 303 304 304 304 304 303 303 304 304 303 302 304 306 308 309
329 329 327 325 324 323 319 314 310 309 309 309 308 308 308 308 308 309 309 310 311 313 316 318 319 320 321 323 325 325 323 322 322 321 319 317 318 319 318 318 317 314 314 316 318 318 318 318 317 317 317 316 316 315 315 314 314 313 313 312 311 309 306 302 303 305 305 305 306 305 303 303 303 303 303 303 303 305 306 305 305 306 307 308 308
329 329 325 320 319 318 317 315 313 310 309 309 309 309 310 311 311 311 312 313 314 314 315 315 316 317 317 318 319 320 321 322 322 320 318 316 316 316 316 316 315 314 315 318 319 318 318 318 317 317 316 315 315 315 314 314 313 312 312 312 311 309 305 300 300 303 303 304 304 304 303 302 302 302 304 304 304 305 306 306 306 306 307 307 306
324 325 324 322 319 315 314 315 315 313 311 311 311 311 311 312 313 314 315 315 316 316 316 317 317 318 318 318 317 318 319 321 321 319 317 316 317 317 317 316 315 315 317 319 319 318 318 317 316 316 316 315 314 314 313 313 313 312 311 311 311 309 305 303 302 302 303 305 305 303 302 303 302 303 304 305 305 306 306 306 306 306 305 305 305
316 318 320 319 316 312 311 312 312 312 312 311 312 312 312 312 313 314 315 316 317 317 317 317 317 317 317 318 317 317 318 319 319 318 317 317 317 317 317 316 316 316 317 318 318 317 317 316 316 316 315 314 314 314 313 313 312 312 311 310 310 309 307 306 304 302 303 305 305 302 301 302 302 302 304 305 305 305 305 305 305 304 304 304 304
315 315 315 314 313 312 312 312 312 312 312 312 312 313 312 313 313 314 315 316 316 316 316 316 316 316 316 316 317 317 318 318 318 318 318 318 317 318 318 317 317 317 318 318 317 317 316 316 316 315 315 314 314 313 313 312 312 311 310 309 309 308 307 305 303 300 301 304 303 300 300 301 301 301 304 305 304 304 304 304 303 303 303 303 303
315 314 314 314 314 314 314 313 313 313 312 312 313 313 314 315 316 316 317 317 317 316 315 315 315 316 316 317 317 318 318 318 318 318 318 318 318 319 319 318 318 318 318 317 317 316 316 316 315 315 314 314 313 313 312 311 311 310 307 305 305 305 304 304 302 300 301 303 303 300 300 302 302 302 303 304 304 303 303 303 302 302 302 302 302
318 317 317 317 317 317 316 316 315 315 314 314 315 316 318 320 320 320 319 319 318 316 315 315 316 316 317 318 318 318 318 318 318 318 318 318 319 320 320 319 318 318 317 317 317 316 316 316 315 315 314 314 313 312 311 310 310 309 307 306 305 304 302 303 302 300 300 303 303 301 301 302 302 302 303 303 303 302 302 302 302 302 301 301 302
322 321 320 320 319 319 319 318 317 317 317 317 318 319 320 321 321 322 322 321 319 317 316 315 316 317 317 318 319 319 319 319 318 318 318 318 319 320 320 319 318 318 317 317 316 316 315 315 315 314 313 313 312 311 310 310 309 307 306 307 307 305 304 304 304 302 301 302 303 302 302 302 302 302 302 302 302 302 301 301 301 301 301 301 301
323 320 318 318 320 321 322 320 320 320 321 321 322 322 322 321 321 322 323 322 321 320 319 319 320 320 318 318 318 319 319 318 319 319 319 319 319 319 319 318 318 318 317 316 316 315 315 314 314 313 313 312 311 310 309 309 308 306 305 306 307 306 305 305 304 302 301 302 302 302 302 302 302 302 302 302 301 301 301 301 301 301 301 301 301
324 320 317 317 321 324 324 323 323 324 324 325 324 324 323 323 322 322 323 322 322 323 322 322 323 322 319 317 318 319 319 320 321 321 321 320 320 319 318 318 318 317 317 316 316 315 314 314 313 313 312 311 310 309 308 308 308 307 306 306 306 305 305 304 303 301 301 302 302 301 301 302 301 301 301 301 301 301 301 301 301 301 301 301 301
326 322 318 318 323 326 326 325 325 325 325 325 325 325 325 324 324 324 323 322 322 323 323 322 323 323 320 318 318 319 320 321 322 321 321 321 320 319 319 318 317 317 316 316 315 314 314 313 312 311 311 310 309 309 308 307 307 307 306 306 305 304 304 303 302 300 301 301 301 301 301 301 300 301 301 300 300 300 301 301 300 300 301 301 301
327 324 321 320 323 325 326 326 326 325 324 324 324 324 324 324 324 324 324 323 323 322 322 323 323 323 321 319 318 318 320 322 322 321 321 321 320 319 319 318 317 316 316 315 315 314 313 312 311 310 310 309 308 308 308 307 306 306 306 305 305 303 302 302 301 300 300 301 301 300 300 300 300 300 300 300 300 300 300 300 300 300 301 301 301
326 327 325 323 324 324 325 325 325 325 325 324 323 323 324 324 324 324 325 324 324 323 323 323 323 323 322 320 318 317 319 321 321 321 321 320 319 319 318 317 317 316 315 315 314 313 312 311 310 309 309 308 306 306 306 305 305 304 305 304 303 301 300 301 301 300 300 301 300 300 300 300 300 300 300 300 300 300 300 300 300 300 300 300 301
324 326 325 325 325 325 325 325 325 325 325 324 324 324 324 323 323 324 324 324 324 324 323 324 323 324 324 322 319 318 320 321 321 320 320 319 319 318 317 316 316 315 315 314 313 312 311 310 309 308 307 306 304 304 304 303 302 302 302 303 302 300 300 300 300 300 300 300 300 300 300 300 300 300 300 300 300 300 300 300 300 300 300 300 300
322 323 323 324 325 325 326 325 324 324 325 324 324 324 324 323 323 323 323 324 324 324 323 323 323 323 323 322 320 319 320 321 320 319 319 318 317 316 316 315 315 314 314 313 312 311 310 309 308 307 306 305 304 302 302 300 300 300 300 300 300 299 299 299 299 299 299 300 300 299 299 300 300 300 300 300 300 300 300 300 300 300 300 300 300
321 321 321 322 323 324 325 325 324 325 325 325 324 323 322 322 322 322 322 323 323 323 322 323 322 322 322 321 320 320 320 320 319 318 317 316 315 315 314 314 313 313 312 311 310 309 308 308 307 307 306 304 303 302 301 300 299 299 299 298 298 298 298 298 299 299 299 299 299 299 299 299 300 299 299 299 300 300 300 300 300 300 300 300 300
320 320 320 321 322 322 323 323 323 324 324 324 323 322 321 321 321 321 321 322 322 322 322 322 321 321 321 321 320 320 319 318 317 317 316 315 314 314 314 313 313 312 311 310 309 307 307 307 307 306 304 304 302 301 300 300 299 299 299 298 298 297 297 298 299 299 298 298 299 299 299 299 300 299 299 299 300 299 300 300 300 300 300 299 300
320 320 320 321 321 320 321 321 321 322 323 323 323 322 321 320 320 321 321 322 321 321 321 321 320 320 320 320 319 318 317 316 316 315 314 314 314 314 313 313 312 311 310 309 308 308 307 307 306 305 304 303 302 301 300 299 299 299 299 298 297 297 297 297 298 298 297 298 299 299 299 299 299 299 299 299 299 299 299 299 299 299 299 299 299
321 320 320 321 321 320 321 320 320 321 322 323 323 322 321 320 320 320 320 321 320 320 320 320 320 320 319 318 317 316 315 315 314 314 313 313 313 313 312 312 311 310 309 308 308 307 306 306 305 305 305 304 303 302 301 300 299 299 299 298 297 297 297 297 297 297 296 297 298 299 299 299 299 299 299 299 299 299 299 299 299 299 299 299 299
320 320 320 321 320 320 320 320 320 321 322 322 322 322 321 321 320 319 319 320 320 319 319 319 319 319 318 316 315 314 314 313 313 312 312 313 312 312 311 310 309 309 309 309 308 307 306 306 305 305 305 304 303 302 301 300 299 299 298 297 296 297 297 296 296 296 296 296 297 298 299 299 299 299 299 299 299 299 299 299 299 299 299 299 299
318 319 319 320 320 320 321 320 320 321 322 322 321 320 320 320 320 320 319 319 319 319 318 318 318 317 316 314 314 313 312 312 312 312 312 312 312 311 311 310 309 309 309 308 308 307 307 307 306 306 305 305 304 302 302 301 299 298 297 296 296 297 297 296 296 297 296 296 296 297 298 298 298 299 299 299 299 299 299 299 299 299 299 299 299
Wind_Speed
20 20 19 19 19 19 20 20 21 20 18 17 16 14 14 13 13 12 11 10 10 10 10 10 10 10 10 10 9 9 10 11 11 9 9 11 10 9 9 10 11 11 11 12 12 12 13 13 14 15 14 14 15 15 15 15 14 15 15 15 15 14 14 14 16 17 15 12 12 12 11 11 11 10 11 11 11 13 14 12 12 12 10 11 15
20 20 19 20 20 20 19 19 20 20 19 18 17 16 14 14 14 13 12 11 11 11 11 11 11 10 10 10 10 10 10 12 12 10 10 11 10 8 9 10 11 12 12 15 14 12 13 14 13 14 15 16 16 16 15 14 13 13 15 16 15 14 14 13 14 15 15 14 13 12 10 10 11 11 11 11 11 12 12 11 11 11 10 10 12
19 20 20 20 20 20 19 19 19 19 19 19 18 16 16 15 14 14 13 12 12 12 11 11 11 11 11 10 11 12 13 13 13 11 11 11 10 10 12 12 13 15 15 16 16 14 14 15 15 15 16 17 18 17 16 16 15 14 15 16 18 17 15 13 14 14 14 15 15 12 11 11 11 11 11 11 11 11 11 11 11 10 10 10 10
18 20 21 20 19 19 19 19 19 19 20 19 18 17 16 15 14 14 14 13 12 12 12 11 12 12 11 11 11 13 14 15 14 12 11 11 12 13 14 14 14 15 15 17 16 14 13 14 15 15 16 17 18 18 18 17 16 16 16 17 18 19 16 13 13 13 14 15 14 12 12 12 11 10 10 11 10 11 11 11 11 10 10 11 10
20 22 22 20 19 19 19 18 18 19 19 18 18 17 16 15 15 14 14 14 13 13 13 12 12 12 12 11 11 11 12 12 12 11 10 10 13 14 13 13 13 13 14 16 15 14 13 14 14 14 15 17 18 19 18 17 17 17 17 16 17 18 16 13 13 13 14 14 13 12 11 10 11 10 9 10 11 11 11 11 10 10 11 12 11
23 24 24 22 21 20 20 19 18 18 19 18 17 17 17 16 16 15 14 14 14 14 13 13 12 12 11 11 10 10 10 10 10 11 10 11 13 14 12 12 13 14 15 16 15 15 15 15 14 15 16 16 17 19 19 19 20 19 17 16 15 15 15 13 12 12 12 12 12 13 12 12 13 13 11 12 12 11 11 12 11 11 12 12 11
25 24 23 23 22 22 21 20 20 19 19 18 17 17 17 16 16 15 15 14 14 14 14 13 13 12 12 12 12 13 13 11 11 12 12 12 13 13 12 11 11 11 13 15 15 15 15 15 16 17 18 18 19 20 20 21 21 19 16 14 13 13 13 12 12 12 13 13 12 12 12 12 14 14 13 14 14 12 12 13 13 12 13 14 14
26 25 23 22 22 23 23 22 21 21 20 18 17 17 17 16 16 15 15 14 14 14 13 13 12 12 11 12 15 16 15 14 14 14 14 14 14 13 13 11 9 9 12 14 14 16 17 17 17 18 20 21 21 20 19 18 18 16 13 12 14 13 12 13 13 13 12 11 11 11 11 9 10 11 12 14 14 13 13 13 13 13 12 14 16
26 26 24 22 22 23 23 23 23 21 20 19 18 17 17 18 18 17 17 16 15 14 13 13 12 11 11 14 16 17 16 16 16 15 16 16 15 14 14 14 13 13 15 15 16 17 17 17 18 20 21 21 20 18 17 17 17 16 14 13 15 14 13 12 12 11 9 8 9 10 9 8 9 9 11 12 13 13 13 11 11 12 10 11 14
26 26 26 23 23 23 22 22 22 21 19 18 17 16 17 18 19 19 19 19 18 16 15 14 12 11 11 14 16 17 17 17 17 17 18 18 17 17 17 16 16 17 15 15 17 17 16 16 19 21 20 19 18 18 18 18 19 17 15 14 13 12 11 9 8 7 6 4 4 5 6 6 8 9 9 10 11 11 11 11 10 11 11 11 12
25 25 24 22 21 20 19 18 19 20 19 18 17 16 16 17 19 19 19 18 18 17 16 15 14 13 13 14 15 17 17 17 17 18 19 19 20 18 14 14 16 17 14 13 14 15 16 18 19 18 17 17 17 16 14 13 13 13 15 15 13 11 9 6 5 5 4 3 4 4 5 6 7 8 8 9 9 8 9 10 10 10 11 11 12
24 25 24 23 20 19 19 18 18 19 21 21 19 17 16 17 18 19 19 17 17 17 16 15 16 16 15 16 16 16 16 17 18 19 18 18 18 14 11 13 14 13 11 10 11 13 15 16 17 16 14 14 14 12 10 8 7 7 8 8 7 6 5 4 4 4 3 3 4 5 5 6 7 8 10 11 10 8 8 9 9 10 11 10 10
21 22 24 24 22 21 20 20 21 21 21 22 22 19 17 17 18 19 18 17 17 16 16 15 16 15 15 16 15 15 15 16 16 16 15 15 15 12 11 12 12 10 10 11 12 13 13 12 12 13 12 11 10 7 7 8 8 6 5 5 3 2 3 3 3 3 4 5 6 6 6 8 9 10 12 12 11 10 10 9 8 9 10 10 11
16 17 18 19 19 18 18 19 20 19 19 21 22 20 18 18 19 18 18 18 16 15 14 15 15 15 14 14 13 13 14 13 13 13 13 13 13 12 12 12 11 11 12 12 13 13 11 8 7 7 6 4 3 3 6 7 6 4 5 5 5 5 5 5 6 6 7 8 8 7 8 10 11 12 12 12 11 11 11 11 10 9 10 10 11
14 14 14 14 14 14 15 15 16 16 17 20 21 20 20 19 18 18 19 19 17 15 14 14 14 13 12 12 11 11 11 11 12 12 13 13 14 14 13 12 12 11 10 10 8 6 4 3 3 2 4 6 5 2 3 3 2 1 2 3 4 5 6 9 10 10 10 10 10 10 11 11 12 12 12 12 11 10 9 10 10 11 11 11 10
13 14 13 14 14 14 14 14 15 16 18 19 20 21 20 18 18 19 20 19 17 16 15 14 14 12 11 10 10 9 9 10 10 10 11 12 12 11 11 9 8 6 3 1 3 5 5 4 5 7 8 9 9 6 5 4 5 5 6 7 8 8 10 12 12 12 12 12 12 12 12 11 11 11 11 12 12 11 8 7 8 11 12 12 11
12 12 12 12 12 12 12 14 15 16 17 18 19 19 18 19 20 20 20 19 17 16 15 14 13 11 10 9 8 8 7 6 5 4 4 4 4 6 6 4 4 6 10 12 13 12 11 10 12 13 14 14 14 13 11 10 11 11 11 11 11 12 14 15 14 13 14 13 13 12 10 9 10 10 10 11 11 11 10 9 10 11 11 12 12
9 9 8 8 8 9 10 11 12 13 14 15 17 17 18 20 20 20 19 18 16 15 15 14 11 8 7 7 6 6 4 1 2 5 7 7 6 7 8 11 14 16 18 19 19 18 18 17 16 17 17 16 15 15 13 12 12 12 12 12 12 14 15 15 13 13 12 11 10 10 9 9 9 10 10 11 10 11 11 11 12 12 11 12 13
8 9 7 7 8 7 8 10 11 12 13 14 16 16 17 18 18 18 17 16 16 16 15 12 9 7 6 6 4 3 5 8 10 11 12 11 11 12 15 18 20 21 21 22 22 22 21 20 18 17 17 15 14 14 13 12 12 12 12 12 13 14 13 11 10 9 8 8 8 8 8 9 10 11 12 13 13 13 14 14 14 13 12 12 13
8 9 10 9 8 9 10 10 10 11 12 13 15 16 17 18 18 18 17 17 17 16 13 11 10 10 10 10 10 11 12 14 14 14 13 13 13 15 17 20 22 23 23 23 23 23 21 20 17 15 14 13 12 12 11 10 11 11 11 11 12 12 10 9 9 8 7 7 7 8 9 10 11 12 14 15 16 17 17 17 18 16 15 15 14
8 9 10 9 8 8 9 9 8 9 10 12 15 17 18 19 21 22 21 19 17 15 13 12 12 14 15 14 14 14 15 16 16 15 15 15 16 17 19 21 22 24 25 24 24 22 20 19 16 13 12 11 11 11 10 10 11 12 13 13 12 10 9 9 9 8 7 7 8 9 10 11 13 14 15 17 18 18 18 18 18 18 17 17 17
8 8 9 9 8 8 9 9 9 9 10 13 16 18 19 20 21 21 19 16 14 15 15 14 15 16 17 17 17 17 18 19 19 17 16 16 17 19 21 22 22 23 24 24 23 21 19 18 15 12 11 12 12 12 12 11 12 13 14 13 11 9 8 8 8 8 8 8 9 10 12 13 14 16 17 18 18 19 18 18 18 18 17 17 18
9 8 9 10 10 9 9 11 11 11 13 15 16 18 19 18 17 17 17 15 16 18 20 19 19 20 21 22 22 22 22 22 21 19 18 17 19 21 23 23 22 21 22 22 21 20 19 17 15 13 12 13 13 12 12 12 12 12 11 10 9 8 8 9 9 9 9 10 11 13 15 16 16 17 18 18 18 19 18 18 18 18 17 17 17
10 10 9 10 11 12 14 15 15 15 16 16 15 16 18 19 17 18 19 18 19 22 23 22 22 23 25 25 24 24 24 24 23 21 20 19 19 20 21 22 21 21 22 22 21 20 19 17 15 13 12 12 11 11 11 11 12 11 10 9 9 9 10 10 10 11 12 13 14 15 15 16 17 17 17 17 17 18 18 18 17 17 17 17 16
12 12 12 14 17 18 19 19 20 20 19 18 16 15 17 18 18 19 20 20 20 22 23 23 24 26 25 24 24 25 26 26 25 23 21 20 19 19 19 20 20 21 22 22 21 20 18 16 14 12 11 11 11 11 12 12 12 11 10 10 11 11 12 12 12 13 13 13 14 14 15 16 17 16 16 17 17 18 19 19 19 19 18 18 17
15 16 17 19 21 21 20 20 20 20 21 20 19 18 18 18 19 20 20 20 20 21 22 23 24 24 22 21 24 28 28 27 26 24 22 22 22 21 20 20 19 20 21 20 19 18 16 14 12 11 11 11 11 12 13 12 11 11 11 12 12 12 12 12 13 14 14 14 14 14 14 14 15 16 17 18 19 20 20 21 21 20 19 19 17
17 18 19 20 21 21 22 22 22 22 21 20 20 20 20 19 19 19 18 17 19 21 22 22 22 22 21 20 22 26 27 26 25 25 24 24 23 21 20 19 18 18 19 18 17 16 14 13 12 12 12 11 12 12 12 12 13 13 13 14 15 15 15 15 16 17 16 15 15 15 15 15 16 16 16 17 18 19 20 20 19 18 18 17 15
18 19 19 21 22 22 23 23 24 24 23 23 22 22 21 19 20 20 19 18 18 19 20 21 21 21 22 21 20 21 22 22 22 23 23 23 22 20 19 18 17 17 17 16 16 15 14 13 12 12 12 12 12 12 12 13 13 13 13 13 15 17 18 17 17 17 17 16 16 15 15 14 15 15 15 15 16 18 19 20 19 18 18 16 13
18 19 20 21 22 21 21 21 21 21 21 21 22 22 21 21 22 24 24 23 22 20 19 20 20 20 22 22 20 19 19 20 21 20 20 21 19 17 15 14 15 15 14 14 15 14 13 12 11 11 10 9 10 10 10 11 11 11 13 13 13 15 16 15 14 14 15 14 14 15 15 13 14 15 15 15 16 17 20 22 22 21 19 15 12
19 20 20 20 20 21 20 20 20 20 20 20 20 21 21 20 21 22 23 23 24 24 23 22 21 20 22 23 21 19 20 22 23 21 19 18 18 16 14 13 15 15 14 15 15 13 12 10 9 9 8 7 8 8 8 9 9 9 11 12 12 13 16 16 14 13 14 14 12 14 16 15 15 16 16 17 17 17 18 21 21 19 17 14 13
20 19 19 19 19 20 20 20 21 21 21 21 22 23 23 23 22 22 22 22 22 23 22 21 20 19 20 21 22 22 22 23 23 21 19 18 18 17 16 16 15 14 15 16 14 11 10 9 8 7 7 7 7 7 8 8 9 9 9 10 11 14 16 18 17 15 15 14 13 14 16 15 15 15 15 16 16 15 15 16 16 16 15 14 13
18 17 18 19 19 19 19 19 19 20 21 22 23 23 23 24 24 23 23 23 22 21 20 19 19 18 18 20 21 22 22 22 20 19 18 17 17 16 16 17 15 14 15 15 12 9 8 8 7 6 6 6 6 7 7 8 8 9 9 9 11 14 17 19 20 17 15 15 14 15 15 14 14 14 14 14 15 14 13 14 14 14 14 13 14
16 16 17 18 17 17 18 18 19 19 19 21 22 23 23 24 25 25 25 23 22 21 20 19 19 19 19 19 19 20 21 20 19 17 16 15 15 15 16 16 14 13 14 13 9 8 7 6 6 6 5 5 5 5 6 7 7 8 9 9 9 11 14 17 18 17 15 14 13 14 14 13 14 14 12 12 13 12 12 13 13 13 14 14 14
16 16 17 18 18 19 19 19 19 19 19 20 22 23 23 24 24 25 25 24 22 21 21 20 19 19 19 19 18 19 19 19 18 16 16 15 14 13 14 15 13 13 13 10 7 7 6 5 5 5 4 4 4 4 4 6 6 8 9 8 8 9 11 13 15 16 15 12 12 14 14 13 13 13 11 11 12 12 12 13 13 14 15 15 15
15 16 16 18 19 20 20 20 20 20 20 21 21 22 22 23 24 24 24 24 23 22 21 21 20 19 19 19 19 19 19 18 17 16 15 14 13 12 13 14 12 10 10 8 7 7 7 6 6 5 4 4 4 4 4 5 6 7 8 8 7 8 10 10 13 16 16 12 12 15 14 12 13 12 11 11 12 12 13 13 14 14 15 16 16
15 16 16 17 18 19 20 20 20 21 21 20 20 20 21 21 22 22 23 23 23 23 22 22 21 20 19 19 19 19 18 17 16 15 14 13 12 12 11 10 9 8 8 7 7 7 7 6 6 5 4 4 4 4 4 5 6 7 9 11 9 9 11 12 14 17 17 12 12 14 13 11 12 12 10 10 11 12 12 13 14 14 15 15 16
15 16 17 17 17 18 18 19 20 20 21 21 20 19 18 18 18 19 21 21 22 22 22 22 21 21 20 20 19 19 18 16 15 14 14 13 12 10 8 7 7 7 7 7 7 7 6 6 5 4 4 3 3 4 4 5 5 6 10 12 11 13 15 14 16 19 18 12 11 12 11 10 11 11 10 10 11 11 12 13 13 13 14 15 15
15 16 17 17 18 18 18 18 19 20 20 21 19 17 16 16 16 17 18 19 21 21 21 21 20 20 20 20 19 18 17 16 15 14 13 12 11 8 6 6 6 7 7 7 7 6 5 5 4 3 3 2 3 3 4 4 5 6 8 7 7 12 14 11 13 17 15 10 8 10 9 9 9 10 10 10 10 11 12 12 12 13 13 14 15
14 16 16 17 18 17 17 18 19 18 18 18 17 16 16 16 16 16 16 18 19 19 19 19 18 18 18 18 18 18 17 15 14 12 11 9 8 7 6 6 6 6 6 6 6 5 5 4 3 2 2 2 2 3 3 4 5 7 8 6 5 8 9 8 10 13 12 8 8 8 8 8 9 10 10 10 10 11 11 11 12 13 13 14 15
14 15 15 16 16 16 16 17 18 17 15 15 15 14 15 15 15 15 16 17 17 17 16 16 16 16 17 17 16 16 15 14 12 11 10 9 8 7 7 6 6 6 6 6 6 5 4 3 2 1 1 2 2 3 4 4 4 6 7 6 6 7 7 8 11 12 9 7 7 8 8 9 9 10 10 10 10 10 11 11 12 12 12 13 15
14 15 16 16 16 15 15 16 16 15 15 15 15 15 14 14 14 15 15 16 16 16 15 15 15 16 17 16 15 13 13 13 12 11 10 9 8 7 7 7 7 6 6 6 6 5 4 2 1 1 1 1 2 3 4 4 4 4 5 5 6 6 6 8 10 9 7 6 7 8 8 9 9 10 10 10 10 10 11 11 12 12 12 14 15
14 15 17 17 17 15 15 15 15 15 15 15 15 15 15 15 15 15 15 15 16 16 15 15 15 16 16 16 15 13 12 12 12 11 10 9 8 8 8 7 7 7 7 6 6 4 3 1 1 0 0 1 2 2 3 4 4 4 4 4 5 6 7 7 7 7 6 6 7 8 8 9 9 9 9 9 9 10 11 11 12 12 13 14 15
14 14 16 17 16 15 14 14 15 15 15 15 15 15 15 15 15 15 16 15 15 15 15 15 15 16 17 17 17 15 12 11 11 11 9 8 8 8 8 7 7 7 7 6 5 3 2 2 2 2 1 1 2 2 2 3 4 3 3 4 6 9 8 5 4 5 5 5 6 8 8 8 8 8 8 9 9 10 10 11 12 12 13 14 15
14 14 15 16 16 15 15 14 14 15 15 15 15 15 15 15 15 15 15 15 15 16 16 15 15 17 17 17 17 15 13 11 11 10 9 8 8 8 7 7 8 8 7 6 5 4 4 4 4 2 1 3 5 4 4 4 4 4 3 3 6 8 7 4 3 4 5 5 6 7 7 7 8 8 8 9 9 10 10 11 12 13 13 13 15
14 14 15 16 16 16 15 15 15 15 15 15 15 15 15 15 15 15 15 15 15 16 16 15 15 16 16 16 16 14 13 12 11 10 9 8 8 8 8 9 9 8 7 7 7 6 6 5 3 1 1 3 5 5 5 5 5 5 6 6 6 6 5 4 3 4 5 5 6 6 6 7 7 7 8 9 9 10 10 10 11 13 13 13 14
14 14 15 15 16 16 16 15 15 15 15 15 15 15 15 15 15 15 15 15 15 15 16 16 15 15 15 15 15 15 13 12 11 11 10 9 9 9 10 10 10 10 9 9 8 7 6 5 3 2 1 3 4 5 5 7 8 8 9 10 8 6 4 3 3 4 4 5 5 5 5 6 6 7 8 9 10 10 11 10 10 11 13 14 14
15 15 15 15 15 16 16 16 16 16 16 16 16 16 16 16 15 15 14 14 15 15 15 16 15 15 15 15 15 15 14 13 12 11 11 10 11 12 12 12 12 11 10 9 7 6 5 4 3 2 2 3 4 5 4 5 7 8 9 9 8 6 4 3 3 3 3 3 4 5 5 5 6 7 8 9 10 10 11 11 11 11 13 14 15
16 16 15 15 15 15 15 16 17 17 17 16 16 17 16 16 15 15 14 14 15 15 15 15 16 16 16 16 15 15 14 13 13 12 11 12 13 13 13 13 12 11 10 9 8 6 5 4 2 3 3 4 5 5 4 4 5 6 7 8 8 7 5 3 2 3 3 3 3 5 5 6 7 7 8 9 9 10 11 11 11 12 14 14 15
16 16 16 16 15 16 16 16 17 17 17 17 17 17 17 16 16 15 15 15 15 15 15 16 17 17 17 16 16 15 14 14 13 12 12 13 13 13 13 13 12 11 10 9 8 7 5 4 3 3 2 3 4 4 4 5 5 5 6 8 8 6 5 4 3 4 4 3 3 4 5 6 7 8 8 9 10 10 11 11 12 13 14 14 15
17 17 17 16 16 16 16 16 17 17 17 17 17 17 16 16 16 15 15 16 16 16 16 17 18 18 17 17 16 15 14 14 13 13 13 13 13 13 13 13 12 11 10 9 8 6 5 4 3 2 2 2 2 2 2 3 4 4 6 8 8 6 5 4 4 4 4 4 4 4 5 6 7 8 8 9 9 10 10 11 12 13 14 14 14
19 18 18 18 18 17 17 17 18 18 18 17 17 17 16 16 16 16 16 17 17 17 18 19 19 18 17 17 16 15 14 14 14 14 13 13 13 13 13 13 12 11 10 9 8 6 5 4 3 2 2 2 1 1 1 3 4 6 7 8 7 5 5 5 4 5 6 7 6 5 5 6 7 7 8 8 9 9 9 11 12 13 14 14 14
Wind_Direction
206 208 208 208 211 211 212 215 214 211 210 211 212 214 215 215 214 214 216 217 219 222 225 228 230 231 232 232 231 232 235 233 228 229 243 250 251 257 263 266 270 275 275 268 261 263 276 287 289 284 282 279 278 280 284 286 287 287 287 285 281 280 279 277 282 289 293 294 292 293 302 307 307 309 310 311 311 308 312 315 313 316 316 309 309
207 208 210 210 212 213 211 213 215 213 212 213 214 214 214 214 214 214 217 221 222 223 225 228 229 231 232 234 235 235 239 243 241 236 241 249 253 260 265 266 271 275 276 277 283 289 287 286 284 278 276 277 278 281 284 285 283 283 283 282 279 278 280 279 281 288 293 293 289 289 298 302 303 309 311 311 311 310 313 318 316 313 311 309 310
209 209 211 213 213 213 211 211 213 214 213 215 216 215 215 214 215 218 219 222 224 224 225 225 227 228 228 232 237 238 239 243 244 239 239 245 249 254 255 255 264 273 272 274 286 296 289 283 283 280 278 279 280 281 280 278 276 274 275 277 277 276 277 278 280 284 291 298 301 303 304 302 303 308 311 313 312 312 315 318 318 316 310 309 313
209 212 215 217 214 211 211 211 212 214 214 217 219 218 218 218 219 222 223 224 225 225 225 224 226 231 232 235 242 246 245 247 248 245 242 247 253 258 264 270 275 277 273 272 282 293 291 282 278 280 285 283 279 277 276 275 274 273 272 274 278 280 279 276 278 283 291 299 305 308 308 308 309 312 316 318 315 315 316 318 320 320 312 314 319
211 217 220 221 216 212 211 210 212 215 216 219 221 221 221 222 224 227 227 227 227 226 227 227 230 236 239 241 247 252 254 257 262 263 258 257 262 265 272 280 282 279 277 277 282 291 293 288 284 286 291 290 285 282 281 279 277 276 274 272 278 285 286 284 285 289 297 303 305 307 305 301 299 304 310 310 311 315 315 316 320 316 313 320 324
219 225 227 224 220 216 214 212 213 216 218 219 222 223 223 223 226 228 229 229 228 227 229 231 234 238 241 244 246 247 251 258 266 270 265 264 271 276 278 280 280 281 282 284 290 296 297 296 294 294 296 296 292 289 286 284 281 278 277 277 278 283 287 290 293 298 307 305 299 302 305 299 300 306 306 304 312 318 313 316 319 316 320 324 320
224 230 230 227 224 221 219 217 217 219 221 221 221 223 225 226 229 231 232 232 231 229 231 233 237 241 243 245 244 242 245 254 262 268 270 270 274 279 284 287 285 282 281 284 291 296 296 295 294 293 293 292 291 288 287 286 283 280 282 280 273 272 276 278 282 294 304 300 296 304 311 310 308 309 306 305 311 314 315 323 324 324 330 323 311
226 229 229 228 227 225 224 224 223 223 226 227 225 225 226 226 228 230 230 230 230 231 233 237 239 240 239 240 245 246 247 254 262 269 273 274 275 276 279 282 281 275 274 278 282 284 288 292 293 290 287 286 288 288 284 281 279 278 279 273 271 275 277 275 279 292 300 303 306 303 300 301 302 305 311 314 318 321 325 332 331 332 337 323 313
228 229 229 228 229 229 229 230 230 229 231 232 230 231 232 230 228 229 230 229 230 231 232 234 236 237 239 245 251 252 251 255 263 271 274 273 273 274 275 277 278 277 276 278 280 283 289 293 291 287 284 285 288 283 274 271 274 275 274 272 275 280 283 286 292 299 307 317 319 313 313 311 306 318 334 336 338 339 337 340 339 332 328 318 313
229 229 229 229 231 232 231 234 236 237 237 234 228 230 234 233 231 232 235 237 236 235 233 232 234 236 241 251 256 255 254 257 264 271 274 272 269 273 279 282 280 277 276 277 279 284 292 293 290 289 288 288 287 280 273 272 274 275 274 272 272 271 275 289 299 302 309 313 309 332 3 358 340 346 351 345 345 345 341 346 345 328 319 321 321
228 228 228 229 229 230 231 232 234 235 235 231 226 227 230 229 229 231 235 239 238 237 235 233 232 230 232 243 254 256 256 259 264 270 272 271 271 274 280 280 278 278 279 279 280 286 292 293 294 297 297 294 289 284 283 281 272 263 259 257 257 260 265 275 284 289 293 279 281 316 347 359 359 358 354 351 355 355 351 350 342 330 336 346 345
225 226 227 229 229 229 228 227 228 229 227 224 223 224 224 222 223 227 230 232 232 231 230 228 229 231 233 239 247 253 255 257 262 267 270 272 274 276 273 272 275 277 277 277 283 289 293 296 301 304 303 301 295 288 286 285 265 245 248 251 247 257 271 275 279 287 302 317 330 335 336 352 6 6 6 9 11 13 11 1 348 344 354 2 359
221 221 223 228 229 228 226 225 226 227 225 222 219 216 217 216 217 220 223 225 226 225 225 226 230 234 236 239 244 250 256 260 264 268 270 272 275 274 269 271 274 275 275 278 284 289 292 298 308 311 308 307 303 284 261 257 253 262 311 340 5 5 350 351 346 346 355 359 4 10 12 18 23 22 18 17 20 25 24 15 2 352 352 359 5
206 210 217 223 224 224 223 220 220 220 219 219 216 214 218 220 216 215 217 221 221 218 220 225 229 232 236 240 245 250 256 263 269 273 275 277 277 274 269 270 273 276 278 279 282 287 291 298 312 321 324 326 313 248 224 229 241 271 323 348 8 14 20 33 33 30 31 33 37 41 39 35 33 29 24 22 25 28 24 19 18 12 2 0 359
196 200 207 213 216 218 219 215 211 211 214 218 219 221 226 225 217 213 215 218 219 219 221 224 227 229 233 238 244 249 258 268 274 278 278 276 273 270 268 269 272 273 273 276 285 301 314 322 344 32 83 93 99 145 202 215 236 306 0 27 36 43 56 58 53 51 48 46 47 46 43 40 35 30 26 22 20 24 23 15 12 11 6 359 351
198 201 205 210 214 219 222 216 210 212 219 224 225 227 227 218 210 213 215 216 219 224 227 225 223 224 230 237 245 253 265 274 276 273 268 264 262 261 260 262 265 264 255 159 84 78 73 71 85 99 105 105 103 103 101 97 95 91 84 81 78 77 74 66 59 55 50 45 43 41 39 34 28 22 17 13 10 11 13 6 4 4 356 349 350
189 197 202 205 207 213 216 213 211 215 225 230 228 223 217 207 204 210 214 213 215 221 225 225 220 218 227 237 245 255 266 276 274 260 245 239 233 231 228 208 166 130 114 109 105 102 102 105 108 107 103 99 97 95 93 91 90 87 84 84 82 76 68 60 52 46 41 37 35 34 30 21 15 9 3 1 359 358 1 5 10 8 357 350 349
171 175 182 191 199 210 216 212 209 211 216 219 216 210 207 205 203 206 209 209 209 211 215 220 218 211 220 233 243 253 261 244 114 111 110 114 126 139 138 126 120 117 115 112 110 107 104 103 103 101 97 96 95 93 90 86 84 81 78 78 75 70 64 55 46 43 40 33 26 22 13 4 359 355 352 353 353 358 6 11 12 8 360 357 347
163 162 174 194 198 199 200 195 193 198 199 201 204 205 205 203 198 198 201 200 202 204 205 208 205 195 198 200 188 160 123 114 112 108 104 105 110 117 120 119 117 116 114 112 108 105 102 98 95 95 95 96 95 93 89 84 82 82 79 74 71 68 64 55 48 49 46 34 17 3 354 350 351 351 352 353 353 358 4 7 10 7 359 356 347
170 172 180 188 181 175 184 189 188 191 192 192 196 198 195 190 186 186 189 191 195 198 192 182 175 164 153 144 131 121 117 115 112 107 105 106 112 120 123 122 120 117 115 112 109 107 104 101 97 95 96 96 93 91 88 83 82 84 81 77 75 72 65 55 52 51 44 31 11 356 352 352 355 357 357 358 358 1 2 2 4 2 356 351 348
161 171 171 167 167 174 184 187 181 181 186 187 187 183 181 184 184 181 181 183 184 182 174 167 160 146 133 127 123 121 121 116 111 106 107 112 119 123 123 122 122 121 118 116 113 110 107 104 100 99 99 98 94 91 89 85 83 83 81 79 80 79 71 59 52 45 36 24 11 6 6 5 5 3 2 3 2 1 1 358 355 354 350 347 344
147 152 144 146 164 181 179 173 171 175 177 180 185 185 184 186 182 171 165 166 166 160 153 146 139 133 129 127 126 123 120 116 112 108 109 116 120 121 122 123 123 122 119 116 112 108 105 102 101 101 100 98 97 95 92 88 82 78 76 75 75 73 65 54 45 34 26 20 14 12 12 11 8 3 2 1 359 357 357 353 348 347 344 342 341
135 130 128 140 156 161 153 151 157 162 164 171 185 187 180 173 162 146 139 145 148 142 135 132 131 131 129 126 123 122 120 117 114 112 113 118 121 122 122 122 121 119 116 112 108 106 104 102 103 104 102 99 97 93 89 84 78 74 72 70 67 61 54 47 39 30 24 20 16 13 11 9 6 2 1 1 359 359 0 357 354 352 348 347 345
140 140 145 147 144 137 130 129 134 142 153 165 175 169 154 145 139 130 128 135 138 133 131 133 134 132 129 125 123 123 121 118 115 113 114 116 118 122 124 123 121 118 113 109 107 106 106 107 108 107 102 97 94 89 85 79 74 74 72 67 62 56 50 45 36 29 26 21 19 16 10 7 6 4 3 4 4 5 5 2 360 358 356 354 350
147 147 145 136 131 129 126 126 128 133 141 149 153 144 134 131 132 131 131 136 136 133 134 137 136 133 130 127 125 125 124 121 118 116 117 116 116 118 119 118 117 113 109 107 107 108 109 109 108 104 96 92 88 83 80 76 73 71 67 60 55 49 44 39 31 28 27 23 18 15 9 6 7 7 5 6 7 5 2 359 358 357 356 355 354
140 138 131 123 123 124 124 125 128 131 135 139 141 138 135 134 134 132 133 135 135 136 139 141 137 131 124 123 125 126 124 122 119 119 120 118 115 114 112 111 110 108 107 108 108 107 106 104 100 95 90 87 84 81 79 77 71 65 58 54 48 42 37 31 27 26 25 22 17 13 10 9 11 10 8 8 5 0 356 354 354 354 352 351 354
137 134 129 126 127 128 128 129 130 131 133 135 136 135 133 132 129 126 125 128 132 135 138 136 132 125 120 122 125 124 122 122 121 122 121 119 117 115 112 110 107 106 107 107 107 106 104 102 99 95 92 87 81 77 74 68 60 53 48 43 36 31 28 23 21 21 22 22 19 15 14 15 13 12 10 6 1 357 355 355 355 353 353 354 357
132 131 131 133 135 135 135 137 138 140 141 141 141 138 135 135 134 132 130 129 129 131 131 130 127 124 125 127 126 124 125 126 126 126 125 123 120 116 111 108 107 107 108 110 112 110 106 103 99 93 90 85 78 72 67 63 60 54 49 42 32 27 26 24 20 20 21 22 21 18 17 16 12 12 9 2 358 357 358 0 2 2 3 4 358
128 129 130 131 132 131 134 137 139 142 144 146 147 145 144 144 144 141 139 137 135 134 132 129 128 127 129 131 132 133 135 134 132 132 131 128 125 121 119 119 117 115 114 113 114 112 107 104 101 95 91 86 82 78 71 65 60 52 49 48 38 29 29 28 24 19 18 19 17 14 16 14 8 7 7 2 359 357 357 1 4 6 8 6 356
127 128 128 128 128 130 133 135 134 136 138 140 141 139 138 138 139 139 139 141 142 142 140 137 137 137 137 138 141 143 142 138 136 135 133 130 129 132 137 131 120 118 117 114 113 114 112 109 103 95 90 83 79 76 68 63 59 50 44 43 38 31 27 28 29 24 18 18 13 8 11 11 7 5 4 1 1 359 356 358 2 3 4 1 352
129 130 132 133 134 136 137 137 135 136 138 140 139 138 136 135 134 134 135 136 137 139 138 136 136 137 137 138 141 143 140 136 134 133 131 129 128 130 128 119 112 114 116 115 116 116 112 106 99 91 85 77 69 63 57 55 53 46 40 35 28 23 19 23 29 26 18 18 15 8 8 9 5 4 1 359 1 0 355 356 359 359 360 357 353
133 135 138 138 138 140 141 140 138 137 140 141 141 140 139 136 134 131 130 130 130 130 129 129 130 132 134 137 140 139 137 135 134 132 130 128 127 123 116 110 110 114 116 116 119 115 107 103 97 90 82 73 68 60 50 44 36 32 29 22 13 9 10 18 25 22 16 15 12 6 6 5 4 5 1 358 359 359 355 357 359 358 358 356 353
141 144 143 141 141 142 141 141 141 141 142 144 144 143 142 141 138 135 132 131 131 131 131 131 133 134 135 137 139 138 137 136 133 130 129 128 125 119 110 107 110 115 116 116 117 112 106 103 100 95 86 75 69 58 44 39 30 20 16 9 1 1 6 13 17 15 12 11 5 2 4 2 2 4 1 356 358 359 358 359 360 359 358 356 353
149 151 150 148 147 145 143 142 143 144 146 148 148 148 148 147 145 141 138 136 134 134 134 135 136 138 138 139 140 139 137 135 132 129 128 125 120 114 109 110 115 118 116 116 117 114 112 110 104 100 95 87 76 57 41 35 24 14 9 4 360 2 6 7 6 7 11 8 357 357 2 1 1 5 3 358 0 2 1 1 1 360 358 355 352
151 154 154 152 149 147 146 145 144 145 148 150 152 153 152 151 148 145 142 140 139 138 138 138 140 141 143 143 142 140 137 135 132 129 126 123 119 114 111 113 117 118 115 115 120 119 115 115 113 106 100 94 80 60 40 25 14 9 8 8 7 4 359 353 353 5 14 9 352 356 3 1 1 8 8 2 2 4 2 1 0 359 356 352 350
152 154 154 153 152 151 151 150 149 148 148 149 152 154 153 151 149 147 145 144 143 143 144 143 143 144 146 145 144 142 139 135 132 129 126 124 120 114 114 119 125 126 123 123 124 123 118 118 118 110 104 94 72 49 24 7 0 350 351 358 3 358 354 349 349 1 14 9 350 356 6 1 359 9 12 3 1 2 1 358 357 355 353 351 350
154 156 156 156 156 157 156 155 154 153 151 150 150 152 152 151 151 151 149 149 149 150 150 149 149 149 149 149 148 145 143 140 137 133 129 125 119 117 126 136 135 131 132 131 128 126 123 120 115 109 102 81 49 24 2 358 359 345 344 352 355 352 356 356 348 354 6 8 350 355 6 3 359 7 8 2 0 0 358 356 355 353 351 350 350
157 160 161 162 162 161 160 160 158 156 153 152 151 152 153 153 154 154 154 155 156 156 155 154 154 154 155 154 153 152 150 147 143 139 133 128 125 129 144 150 144 140 142 140 135 134 130 124 117 108 92 55 23 11 358 353 352 349 352 357 349 346 353 356 343 345 358 4 351 354 5 5 0 3 4 0 358 357 355 354 353 352 351 350 351
165 169 169 166 163 161 162 163 161 158 156 156 155 156 157 158 158 158 159 160 160 159 159 159 159 161 164 163 160 159 157 154 151 149 145 142 146 155 160 158 156 154 150 145 143 140 134 129 125 109 79 33 3 3 4 352 344 350 360 5 349 341 349 348 339 343 354 360 354 357 5 5 2 1 359 357 355 354 355 353 352 353 352 351 350
171 174 172 166 162 162 164 165 164 163 163 163 163 163 163 164 164 164 165 165 164 165 166 166 166 172 176 175 170 167 164 164 167 168 167 167 170 171 168 168 167 163 160 158 152 144 137 133 121 78 38 15 2 3 9 10 357 350 353 354 346 345 348 339 337 344 357 3 1 3 6 5 3 358 354 354 356 355 354 352 352 353 352 351 350
174 177 176 170 167 168 170 171 173 174 174 173 173 172 172 172 171 171 173 173 173 175 176 174 175 180 182 180 175 170 169 175 181 180 174 173 174 173 174 176 171 167 170 171 163 155 152 148 111 44 1 1 11 7 5 9 2 346 343 344 341 345 348 340 337 349 9 16 11 11 8 3 1 357 351 352 357 357 353 352 352 352 352 352 350
178 182 183 179 176 175 178 180 181 181 181 182 182 182 182 182 181 181 181 181 183 184 183 182 186 187 183 178 177 174 174 181 186 180 174 176 179 177 175 175 173 174 177 175 170 166 164 162 144 164 215 16 26 14 353 349 347 342 342 337 328 335 346 343 340 359 24 24 15 14 7 358 358 358 352 351 357 357 352 351 352 352 352 352 350
185 186 188 188 186 185 185 186 186 186 186 187 188 189 189 189 190 190 189 188 189 189 186 188 193 193 187 184 185 183 180 182 185 182 179 181 179 175 174 176 178 177 172 169 172 177 175 176 180 173 179 325 352 352 330 327 334 342 345 327 320 330 345 355 356 14 33 29 16 13 6 357 358 358 352 353 358 355 350 350 351 350 350 350 347
191 192 194 194 194 193 192 191 191 190 190 191 191 193 192 192 192 193 193 191 191 190 190 191 194 196 195 192 188 186 186 187 188 186 185 184 181 179 182 185 181 174 170 175 185 185 176 176 181 183 248 317 330 335 329 326 330 334 338 333 325 331 345 6 22 24 31 30 17 9 1 356 357 355 349 350 354 351 347 347 347 347 347 346 345
193 195 197 196 197 196 195 194 193 191 191 192 192 193 194 194 194 195 195 194 192 192 193 192 190 192 195 191 185 186 191 192 189 187 188 188 188 186 186 186 183 178 178 183 182 172 165 168 177 206 292 324 336 338 339 343 344 338 336 341 344 342 347 0 19 26 30 27 16 5 357 354 354 350 346 346 347 345 343 342 342 343 343 342 343
194 197 197 196 196 196 195 195 193 192 192 193 193 193 194 195 196 197 198 198 195 192 192 192 188 185 185 184 184 187 190 189 188 190 193 192 190 186 183 183 182 178 177 179 177 173 172 174 176 200 281 329 342 343 344 348 350 348 346 347 350 354 357 6 16 23 26 23 11 1 357 354 349 342 341 342 342 340 339 339 338 338 338 338 338
195 198 198 197 199 199 198 197 196 194 193 193 193 193 194 196 198 199 199 198 196 192 190 191 190 186 184 183 182 184 186 186 189 193 193 189 184 180 178 177 175 173 175 179 179 180 184 186 194 234 286 326 345 355 359 352 347 348 347 345 344 345 350 8 19 15 18 22 7 353 351 350 343 336 337 338 338 339 339 337 336 337 337 337 336
197 198 198 198 200 201 200 198 197 195 193 192 192 192 193 195 196 197 197 195 193 190 189 189 187 184 182 182 181 183 187 189 191 191 189 182 176 174 174 173 172 173 176 178 176 175 179 191 226 277 305 332 350 1 5 358 350 346 339 335 336 337 338 349 3 354 359 12 358 339 338 339 334 332 335 335 334 336 336 335 335 337 337 336 334
199 199 199 198 199 199 197 196 195 192 190 190 189 189 190 192 194 196 196 193 190 188 187 185 182 179 179 182 184 187 189 189 187 184 180 175 173 173 174 174 174 174 174 175 177 185 199 219 242 267 296 333 354 1 357 354 355 344 328 328 336 339 335 335 340 341 351 6 356 335 332 330 326 327 331 330 329 331 331 331 334 337 336 335 335
201 200 199 198 197 196 194 193 192 190 188 188 187 187 188 189 191 192 192 190 188 187 186 184 181 180 182 185 188 188 186 184 180 178 176 174 174 175 176 178 179 177 175 177 184 194 206 222 237 240 254 301 341 357 346 342 344 331 320 326 335 337 331 331 334 331 336 345 344 334 328 325 323 326 327 326 326 327 327 329 334 336 334 335 335
202 201 200 198 197 195 193 192 191 189 189 189 188 189 189 188 187 187 189 189 189 189 187 185 184 185 187 190 190 186 182 179 177 177 177 176 176 178 180 182 181 178 178 183 189 190 190 197 208 213 223 258 313 340 311 311 326 330 327 328 332 333 326 326 326 320 322 331 338 336 325 321 323 325 323 322 323 325 327 332 336 335 333 334 335